map of MHK home
MHK - Airport
Location
City:  Manhattan, Kansas, United States
Name:Manhattan Regional
ICAO:KMHK
IATA:MHK
FAA LID:MHK

Details
Type:Airport (Part 139 Class I)
Use:Public/Civil
Latitude:3908'28"N (39.141234)
Longitude:9640'18"W (-96.671796)
Datum:WGS 1984
Elevation:1066 ft (325 m)
Variation:3.11E (WMM2015 magnetic declination)
-0.10 annual change
Runways:2
Longest:7000 × 150 ft (2134 × 45.5 m), paved

Time
Time Zone:UTC-6 (DST-5)
Local Time:

Weather
METAR:KMHK 250452Z AUTO 00000KT 9SM CLR M03/M04 A2993 RMK AO2 SLP145 I1000 T10331044
TAF:KMHK 250525Z 2506/2606 25006KT P6SM SKC
FM252000 22008KT P6SM SCT100

Related Locations
Nearby:
Farthest:MQZ: 10648 mi / 17136 km
Margaret River [Margaret River Airport], WA, AU

Find:

   beyond  
but within

Other Information
Maps:
NOTAMs:
Links:
Sources:

  
flag of United States
flag of Kansas
  

Airport Diagram

Airport diagram for MHK

Airport diagram PDF

Sectional Chart

Flight Planning
at skyvector.com

Satellite Image

Google Maps Satellite view

 

Copyright © 2004-2018 Karl L. Swartz. All rights reserved.
The Great Circle Mapper name and logo are trademarks of the Great Circle Mapper.
All other trademarks mentioned herein belong to their respective owners.
Please see credits for attibutions and further copyright information.

  Follow gcmap on Facebook Follow gcmap on Twitter Follow gcmap on Google+ GCmap on LinkedIn

hCard Microformat

Geo Microformat